Ouarzazate, Morocco

4:05 PM WET on February 06, 2016 (GMT +0000)
Ouarzazate

Weather History for GMMZ - January, 2014

Change the Weather History Date:

Sunday, January 19, 2014

  Actual Average Record
Temperature  
Mean Temperature 52 °F -  
Max Temperature 63 °F 65 °F - ()
Min Temperature 42 °F 38 °F - ()
Degree Days  
Heating Degree Days 12    
Growing Degree Days 2 (Base 50)    
Moisture  
Dew Point 30 °F    
Average Humidity 41    
Maximum Humidity 61    
Minimum Humidity 13    
Precipitation  
Precipitation 0.00 in 0.02 in - ()
Sea Level Pressure  
Sea Level Pressure 29.82 in    
Wind  
Wind Speed 14 mph ()    
Max Wind Speed 38 mph    
Max Gust Speed 47 mph    
Visibility 7.6 miles    
Events      
T = Trace of Precipitation, MM = Missing Value Source: Averaged Metar Reports

Daily Weather History Graph

Daily Weather History Graph

Search for Another Location

Airport or City:

Trip Planner

Search our weather history database for the weather conditions in past years. The results will help you decide how hot, cold, wet, or windy it might be!

Date:

Astronomy

Jan. 19, 2014 Rise Set
Actual Time 7:25 AM WET 5:51 PM WET
Civil Twilight 6:59 AM WET 6:17 PM WET
Nautical Twilight 6:29 AM WET 6:47 PM WET
Astronomical Twilight 6:00 AM WET 7:15 PM WET
Moon 9:00 PM WET (1/19) 9:03 AM WET (1/19)
Length of Visible Light 11h 18m
Length of Day
10h 26m
Waning Gibbous, 90% of the Moon is Illuminated
Jan 19
Waning Gibbous
Jan 24
Last Quarter
Jan 30
New
Feb 6
First Quarter
Feb 14
Full

Hourly Weather History & Observations

Time (WET) Temp. Windchill Dew Point Humidity Pressure Visibility Wind Dir Wind Speed Gust Speed Precip Events Conditions
12:00 AM 45 °F - 26 °F 34%  in 12 mi WSW 5.8 mph - -   Scattered Clouds
12:00 AM 44.6 °F 41.4 °F 26.6 °F 49% 29.80 in 6.2 mi WSW 5.8 mph - N/A   Partly Cloudy
1:00 AM 44.6 °F 40.2 °F 26.6 °F 49% 29.77 in 6.2 mi SSW 8.1 mph - N/A   Partly Cloudy
2:00 AM 46.4 °F 41.5 °F 26.6 °F 46% 29.77 in 6.2 mi South 10.4 mph - N/A   Partly Cloudy
3:00 AM 44 °F - 27 °F 39%  in 12 mi South 8.1 mph - -   Scattered Clouds
3:00 AM 44.6 °F 40.2 °F 26.6 °F 49% 29.77 in 6.2 mi South 8.1 mph - N/A   Partly Cloudy
4:00 AM 44.6 °F 42.2 °F 26.6 °F 49% 29.77 in 6.2 mi South 4.6 mph - N/A   Partly Cloudy
5:00 AM 44.6 °F 40.7 °F 30.2 °F 57% 29.77 in 6.2 mi South 6.9 mph - N/A   Partly Cloudy
6:00 AM 43 °F - 30 °F 48%  in 12 mi South 5.8 mph - -   Scattered Clouds
6:00 AM 42.8 °F 39.3 °F 30.2 °F 61% 3.16 in 6.2 mi South 5.8 mph - N/A   Partly Cloudy
7:00 AM 44.6 °F 38.8 °F 32.0 °F 61% 29.77 in 6.2 mi South 11.5 mph - N/A   Partly Cloudy
8:00 AM 44.6 °F 40.7 °F 32.0 °F 61% 29.80 in 6.2 mi South 6.9 mph - N/A   Partly Cloudy
9:00 AM 47 °F - 33 °F 47%  in 12 mi SSE 11.5 mph - -   Scattered Clouds
9:00 AM 48.2 °F - 33.8 °F 58% 29.80 in 6.2 mi SSE 11.5 mph - N/A   Partly Cloudy
10:00 AM 51.8 °F - 33.8 °F 50% 29.80 in 6.2 mi SSE 10.4 mph - N/A   Partly Cloudy
11:00 AM 59.0 °F - 30.2 °F 34% 29.80 in 6.2 mi WNW 25.3 mph - N/A   Partly Cloudy
12:00 PM 63 °F - 25 °F 13%  in 12 mi WNW 36.8 mph - -   Scattered Clouds
12:00 PM 62.6 °F - 24.8 °F 24% 29.80 in 6.2 mi WNW 36.8 mph - N/A   Partly Cloudy
1:00 PM 62.6 °F - 32.0 °F 32% 29.80 in 6.2 mi WNW 38.0 mph - N/A   Partly Cloudy
2:00 PM 62.6 °F - 32.0 °F 32% 29.80 in 6.2 mi West 36.8 mph - N/A   Partly Cloudy
3:00 PM 62 °F - 28 °F 16%  in 12 mi West 35.7 mph - -  
3:00 PM 62.6 °F - 28.4 °F 27% 29.80 in 6.2 mi West 35.7 mph 47.2 mph N/A   Partly Cloudy
4:00 PM 60.8 °F - 28.4 °F 29% 29.83 in 6.2 mi West 28.8 mph 42.6 mph N/A   Partly Cloudy
5:00 PM 59.0 °F - 28.4 °F 31% 29.86 in 6.2 mi West 29.9 mph - N/A   Partly Cloudy
6:00 PM 57 °F - 31 °F 24%  in 12 mi West 26.5 mph - -   Scattered Clouds
6:00 PM 57.2 °F - 30.2 °F 36% 29.86 in 6.2 mi West 26.5 mph - N/A   Partly Cloudy
7:00 PM 55.4 °F - 32.0 °F 41% 29.89 in 6.2 mi West 27.6 mph - N/A   Partly Cloudy
8:00 PM 55.4 °F - 33.8 °F 44% 29.92 in 6.2 mi West 16.1 mph - N/A   Partly Cloudy
9:00 PM 55 °F - 32 °F 29%  in 12 mi West 21.9 mph - -   Scattered Clouds
9:00 PM 55.4 °F - 32.0 °F 41% 29.92 in 6.2 mi West 21.9 mph - N/A   Partly Cloudy
10:00 PM 53.6 °F - 32.0 °F 44% 29.92 in 6.2 mi West 24.2 mph - N/A   Partly Cloudy
11:00 PM 51.8 °F - 32.0 °F 47% 29.92 in 6.2 mi West 20.7 mph - N/A   Partly Cloudy